TimeCST,TemperatureF,Dew PointF,Humidity,Sea Level PressureIn,VisibilityMPH,Wind Direction,Wind SpeedMPH,Gust SpeedMPH,PrecipitationIn,Events,Conditions,WindDirDegrees,DateUTC
12:15 AM,64.4,64.4,100,30.10,10.0,SSE,5.8,-,N/A,,Overcast,160,2013-01-11 06:15:00
12:35 AM,64.4,64.4,100,30.09,10.0,South,8.1,-,N/A,,Overcast,180,2013-01-11 06:35:00
12:55 AM,64.4,64.4,100,30.10,10.0,SSE,8.1,-,N/A,,Overcast,160,2013-01-11 06:55:00
1:15 AM,64.4,64.4,100,30.10,10.0,South,9.2,18.4,N/A,,Overcast,180,2013-01-11 07:15:00
1:35 AM,64.4,64.4,100,30.09,10.0,South,12.7,19.6,N/A,,Overcast,170,2013-01-11 07:35:00
1:55 AM,64.4,64.4,100,30.09,10.0,South,12.7,19.6,N/A,,Overcast,180,2013-01-11 07:55:00
2:15 AM,64.4,64.4,100,30.09,10.0,South,11.5,20.7,N/A,,Overcast,180,2013-01-11 08:15:00
2:35 AM,64.4,64.4,100,30.09,10.0,South,13.8,20.7,N/A,,Overcast,180,2013-01-11 08:35:00
2:55 AM,64.4,64.4,100,30.09,10.0,South,12.7,20.7,N/A,,Overcast,180,2013-01-11 08:55:00
3:15 AM,64.4,64.4,100,30.09,10.0,South,13.8,20.7,N/A,,Overcast,180,2013-01-11 09:15:00
3:35 AM,64.4,64.4,100,30.08,10.0,South,13.8,19.6,N/A,,Overcast,180,2013-01-11 09:35:00
3:55 AM,64.4,64.4,100,30.08,10.0,South,9.2,17.3,N/A,,Overcast,180,2013-01-11 09:55:00
4:15 AM,62.6,62.6,100,30.07,10.0,South,13.8,18.4,N/A,,Overcast,170,2013-01-11 10:15:00
4:55 AM,62.6,62.6,100,30.08,5.0,South,11.5,-,N/A,,Drizzle,180,2013-01-11 10:55:00
5:15 AM,62.6,62.6,100,30.09,7.0,South,9.2,-,N/A,Rain,Light Rain,180,2013-01-11 11:15:00
5:35 AM,60.8,60.8,100,30.09,5.0,South,10.4,17.3,N/A,,Drizzle,190,2013-01-11 11:35:00
5:55 AM,60.8,60.8,100,30.10,5.0,South,10.4,16.1,N/A,Rain,Rain,180,2013-01-11 11:55:00
6:15 AM,60.8,60.8,100,30.11,5.0,South,8.1,17.3,N/A,,Drizzle,180,2013-01-11 12:15:00
6:35 AM,60.8,60.8,100,30.11,7.0,South,9.2,-,0.01,Rain,Rain,190,2013-01-11 12:35:00
6:55 AM,60.8,60.8,100,30.12,5.0,South,9.2,-,0.01,,Light Drizzle,190,2013-01-11 12:55:00
7:15 AM,60.8,60.8,100,30.12,7.0,South,9.2,-,N/A,Rain,Rain,180,2013-01-11 13:15:00
7:35 AM,60.8,60.8,100,30.12,7.0,South,8.1,-,0.01,,Overcast,180,2013-01-11 13:35:00
7:55 AM,60.8,60.8,100,30.12,10.0,South,10.4,-,0.01,,Overcast,180,2013-01-11 13:55:00
8:15 AM,62.6,62.6,100,30.13,10.0,South,11.5,-,N/A,,Overcast,180,2013-01-11 14:15:00
8:35 AM,62.6,62.6,100,30.14,5.0,South,10.4,-,N/A,Rain,Rain,190,2013-01-11 14:35:00
9:15 AM,62.6,62.6,100,30.14,5.0,SSW,9.2,-,N/A,,Overcast,200,2013-01-11 15:15:00
9:35 AM,62.6,62.6,100,30.14,7.0,South,6.9,-,0.01,,Overcast,180,2013-01-11 15:35:00
9:55 AM,62.6,62.6,100,30.15,10.0,South,6.9,-,0.01,,Overcast,190,2013-01-11 15:55:00
10:15 AM,62.6,62.6,100,30.14,10.0,South,6.9,-,N/A,,Overcast,180,2013-01-11 16:15:00
10:55 AM,64.4,64.4,100,30.12,10.0,South,8.1,-,N/A,,Overcast,190,2013-01-11 16:55:00
11:15 AM,64.4,64.4,100,30.12,10.0,South,9.2,-,N/A,,Overcast,190,2013-01-11 17:15:00
12:15 PM,64.4,64.4,100,30.10,10.0,South,8.1,-,N/A,Rain,Light Rain,190,2013-01-11 18:15:00
12:35 PM,62.6,62.6,100,30.09,5.0,South,6.9,-,N/A,,Drizzle,180,2013-01-11 18:35:00
12:55 PM,62.6,62.6,100,30.09,2.5,South,5.8,-,N/A,,Drizzle,180,2013-01-11 18:55:00
1:15 PM,62.6,-9999,N/A,30.09,7.0,South,6.9,-,N/A,,Overcast,170,2013-01-11 19:15:00
1:35 PM,62.6,-9999,N/A,30.08,10.0,SSE,6.9,-,N/A,,Overcast,160,2013-01-11 19:35:00
1:55 PM,62.6,-9999,N/A,30.08,10.0,South,6.9,-,N/A,,Overcast,180,2013-01-11 19:55:00
2:15 PM,62.6,-9999,N/A,30.08,4.0,SSE,4.6,-,0.01,,Light Drizzle,160,2013-01-11 20:15:00
2:35 PM,64.4,-9999,N/A,30.08,7.0,SSE,6.9,-,0.01,,Overcast,160,2013-01-11 20:35:00
2:55 PM,62.6,-9999,N/A,30.09,5.0,South,4.6,-,0.01,Rain,Rain,190,2013-01-11 20:55:00
3:15 PM,62.6,-9999,N/A,30.08,3.0,South,5.8,-,0.01,,Drizzle,170,2013-01-11 21:15:00
3:35 PM,62.6,-9999,N/A,30.08,2.0,South,6.9,-,0.03,Rain,Light Rain,170,2013-01-11 21:35:00
3:55 PM,62.6,-9999,N/A,30.08,2.5,South,6.9,-,0.03,,Light Drizzle,180,2013-01-11 21:55:00
4:15 PM,62.6,-9999,N/A,30.08,2.5,South,8.1,-,0.01,,Drizzle,180,2013-01-11 22:15:00
4:35 PM,62.6,-9999,N/A,30.09,4.0,SSW,9.2,-,0.02,,Drizzle,200,2013-01-11 22:35:00
4:55 PM,62.6,-9999,N/A,30.09,4.0,South,8.1,-,0.03,,Drizzle,190,2013-01-11 22:55:00
5:15 PM,62.6,-9999,N/A,30.09,3.0,South,4.6,-,N/A,,Drizzle,170,2013-01-11 23:15:00
5:35 PM,62.6,-9999,N/A,30.09,4.0,Calm,Calm,-,0.01,Rain,Heavy Rain,0,2013-01-11 23:35:00
5:55 PM,62.6,-9999,N/A,30.09,3.0,South,3.5,-,0.04,Rain,Light Rain,170,2013-01-11 23:55:00
6:15 PM,62.6,-9999,N/A,30.09,2.5,Calm,Calm,-,0.02,Rain,Heavy Rain,0,2013-01-12 00:15:00
6:35 PM,62.6,-9999,N/A,30.09,2.5,Calm,Calm,-,0.06,Rain,Rain,0,2013-01-12 00:35:00
6:55 PM,62.6,-9999,N/A,30.09,2.5,West,3.5,-,0.10,Rain,Heavy Rain,280,2013-01-12 00:55:00
7:15 PM,62.6,-9999,N/A,30.09,5.0,SSE,3.5,-,0.01,,Light Drizzle,160,2013-01-12 01:15:00
7:35 PM,62.6,-9999,N/A,30.09,4.0,South,5.8,18.4,0.06,Rain,Light Rain,170,2013-01-12 01:35:00
7:55 PM,62.6,-9999,N/A,30.09,5.0,SE,4.6,-,0.06,,Haze,140,2013-01-12 01:55:00
8:15 PM,62.6,-9999,N/A,30.09,4.0,SSE,5.8,-,N/A,Rain,Rain,150,2013-01-12 02:15:00
8:35 PM,62.6,-9999,N/A,30.10,3.0,South,4.6,-,0.01,Rain,Heavy Rain,180,2013-01-12 02:35:00
8:55 PM,62.6,-9999,N/A,30.10,4.0,South,4.6,-,0.01,,Haze,170,2013-01-12 02:55:00
9:15 PM,62.6,-9999,N/A,30.10,4.0,SSE,3.5,-,N/A,Rain,Light Rain,160,2013-01-12 03:15:00
9:35 PM,62.6,-9999,N/A,30.10,4.0,SSE,4.6,-,N/A,,Haze,160,2013-01-12 03:35:00
9:55 PM,62.6,-9999,N/A,30.10,5.0,South,5.8,-,N/A,Rain,Rain,180,2013-01-12 03:55:00
10:15 PM,64.4,-9999,N/A,30.10,4.0,South,6.9,-,N/A,,Drizzle,170,2013-01-12 04:15:00
10:35 PM,64.4,-9999,N/A,30.09,10.0,South,5.8,-,N/A,,Overcast,180,2013-01-12 04:35:00
11:15 PM,64.4,-9999,N/A,30.09,10.0,South,8.1,-,N/A,,Overcast,170,2013-01-12 05:15:00
11:35 PM,64.4,64.4,100,30.09,10.0,South,9.2,-,N/A,,Overcast,180,2013-01-12 05:35:00
11:55 PM,64.4,64.4,100,30.09,10.0,South,11.5,16.1,N/A,,Overcast,190,2013-01-12 05:55:00